Tracking 28790 objects as of 19-Apr-2024
HD Live streaming from Space Station
objects crossing your sky now

COSMOS 2251 DEB

Track COSMOS 2251 DEB now!
10-day predictions


NORAD ID: 34045
Int'l Code: 1993-036JG
Perigee: 767.8 km
Apogee: 806.9 km
Inclination: 74.0 °
Period: 100.5 minutes
Semi major axis: 7158 km
RCS: 0.1155 m2 (medium)
Launch date: June 16, 1993
Source: Commonwealth of Independent States (former USSR) (CIS)
Launch site: PLESETSK MISSILE AND SPACE COMPLEX (PKMTR)

Note: This is SATELLITE DEBRIS
Your satellite tracking list
Your tracking list is empty




NASA's NSSDC Master Catalog

Two Line Element Set (TLE):
1 34045U 93036JG  24109.07948146  .00000571  00000-0  21549-3 0  9999
2 34045  74.0396 334.8969 0027319 209.2510 270.0443 14.33440759793818
Source of the keplerian elements: AFSPC